Regional Weather Roundup
Issued by NWS

Home | Current Version | Previous Version | Graphics & Text | Print | Product List | Glossary On
Versions: 1 2 3 4 5 6 7 8 9 10 11 12 13 14 15 16 17 18 19 20 21 22 23 24 25 26 27 28 29 30 31 32 33 34 35 36 37 38 39 40 41 42 43 44 45 46 47 48 49 50
000
ASUS43 KLMK 202110
RWRKY
KENTUCKY REGIONAL WEATHER ROUNDUP
NATIONAL WEATHER SERVICE LOUISVILLE KY
400 PM EST SAT DEC 20 2014

NOTE "FAIR" INDICATES FEW OR NO CLOUDS BELOW 12,000 FEET
WITH NO SIGNIFICANT WEATHER AND/OR OBSTRUCTIONS TO VISIBILITY.

KYZ001>023-026-027-061>063-070>075-202200-
WESTERN AND SOUTH CENTRAL KENTUCKY

CITY           SKY/WX    TMP DP  RH WIND       PRES   REMARKS
PADUCAH        SUNNY     45  29  53 VRB5      30.24R
HENDERSON      MOSUNNY   37  25  60 CALM      30.27R
OWENSBORO      CLOUDY    38  27  65 NE3       30.27R
HOPKINSVILLE   CLOUDY    40  28  63 N2        30.24S
BOWLING GREEN  MOSUNNY   43  27  53 N5        30.25R
GLASGOW        SUNNY     43  28  54 CALM      30.23R
$$

KYZ024-025-028>034-038-045-046-053-202200-
NORTH CENTRAL KENTUCKY

CITY           SKY/WX    TMP DP  RH WIND       PRES   REMARKS
LOUISVILLE/SDF CLOUDY    38  26  62 N6        30.25S WCI  33
LOUISVILLE/LOU CLOUDY    37  26  64 CALM      30.26R
FORT KNOX      CLOUDY    38  26  63 NW5       30.23R WCI  34
$$

KYZ035>037-039>044-047>052-055>060-089>105-202200-
NORTHEAST KENTUCKY

CITY           SKY/WX    TMP DP  RH WIND       PRES   REMARKS
LEXINGTON      CLOUDY    36  27  69 N5        30.23R WCI  32
COVINGTON      CLOUDY    32  24  72 N3        30.24S
FRANKFORT      CLOUDY    35  25  66 CALM      30.23S
$$

KYZ054-064>069-076>088-106>120-202200-
SOUTHEAST KENTUCKY

CITY           SKY/WX    TMP DP  RH WIND       PRES   REMARKS
JACKSON        CLOUDY    38  25  59 CALM      30.20R
LONDON         CLOUDY    41  26  55 N3        30.20R
SOMERSET       CLOUDY    37  27  65 CALM      30.23S
MIDDLESBORO    CLOUDY    43  31  64 E5        30.20R
MONTICELLO     CLOUDY    42  26  53 CALM      30.24S
$$



USA.gov is the U.S. government's official web portal to all federal, state and local government web resources and services.